{"data":{"norad_id":67102,"epoch":"2026-09-20T22:00:03.000096Z","epoch_age_seconds":42688,"freshness":"FRESH","line1":"1 67102U 25299A   26263.91670139  .00864313  00000+0  19436-1 0  9996","line2":"2 67102  43.0025 145.8460 0001414 274.0808 341.5421 15.40099359  5504","mean_motion":15.40099359,"eccentricity":0.0001414,"inclination_deg":43.0025,"raan_deg":145.846,"arg_perigee_deg":274.0808,"mean_anomaly_deg":341.5421,"bstar":0.019436,"rev_number":550,"period_min":93.500460966038,"perigee_km":444.85089856987,"apogee_km":446.78071242326,"semimajor_km":6823.9528054966,"source":"CELESTRAK","updated_at":"2026-09-21T09:00:36.103333Z"}}